When you browse on this site, cookies collect data to enhance your experience and personalize the content and advertising you see.
Visit our Privacy Policy to learn more. By continuing to use the site, you agree to this use of cookies and data.
  • In Czech Republic
  • List of Countries
  • For 7 days
  • Water Temperature
  • Satellite Maps
  • Weather Map
  • Weather Widgets
  • user-avatar
    Login

    Hourly Weather Neseta

    Today, 21 July, Sunday

    Time Temperature Precipitation Wind Pressure Humidity
    00:00 +15°C° 0 mm 0 mps 749 mmHg 87%
    01:00 +14°C° 0 mm 0 mps 749 mmHg 88%
    02:00 +14°C° 0 mm 0 mps 749 mmHg 89%
    03:00 +14°C° 0 mm 0 mps 749 mmHg 88%
    04:00 +14°C° 0 mm 0 mps 749 mmHg 88%
    05:00 +14°C° 0 mm 0 mps 749 mmHg 88%
    06:00 +17°C° 0 mm 0 mps 749 mmHg 82%
    07:00 +19°C° 0 mm 0 mps 749 mmHg 76%
    08:00 +21°C° 0 mm 0 mps 750 mmHg 69%
    09:00 +23°C° 0.2 mm 0 mps 750 mmHg 64%
    10:00 +24°C° 0.2 mm 0 mps 750 mmHg 59%
    11:00 +26°C° 0.2 mm 0 mps 750 mmHg 53%
    12:00 +26°C° 0 mm 0 mps 750 mmHg 53%
    13:00 +26°C° 0 mm 0 mps 750 mmHg 52%
    14:00 +28°C° 0 mm 1 mps 749 mmHg 51%
    15:00 +28°C° 0.1 mm 1 mps 749 mmHg 53%
    16:00 +25°C° 0.1 mm 0 mps 749 mmHg 54%
    17:00 +25°C° 0.1 mm 0 mps 749 mmHg 56%
    18:00 +25°C° 0.1 mm 1 mps 749 mmHg 64%
    19:00 +23°C° 0.1 mm 1 mps 749 mmHg 72%
    20:00 +21°C° 0.1 mm 1 mps 748 mmHg 81%
    21:00 +21°C° 0 mm 1 mps 749 mmHg 83%
    22:00 +20°C° 0 mm 1 mps 749 mmHg 84%
    23:00 +18°C° 0 mm 2 mps 749 mmHg 86%

    Tomorrow, 22 July, Monday

    Time Temperature Precipitation Wind Pressure Humidity
    00:00 +18°C° 0.2 mm 2 mps 748 mmHg 88%
    01:00 +18°C° 0.2 mm 2 mps 748 mmHg 90%
    02:00 +18°C° 0.2 mm 2 mps 748 mmHg 92%
    03:00 +17°C° 0.1 mm 2 mps 748 mmHg 92%
    04:00 +17°C° 0.1 mm 2 mps 748 mmHg 92%
    05:00 +17°C° 0.1 mm 2 mps 747 mmHg 92%
    06:00 +18°C° 0.3 mm 2 mps 747 mmHg 92%
    07:00 +18°C° 0.3 mm 2 mps 747 mmHg 91%
    08:00 +19°C° 0.3 mm 2 mps 747 mmHg 91%
    09:00 +19°C° 1 mm 2 mps 747 mmHg 92%
    10:00 +18°C° 1 mm 2 mps 747 mmHg 94%
    11:00 +18°C° 1 mm 2 mps 747 mmHg 96%
    12:00 +18°C° 0.8 mm 2 mps 747 mmHg 95%
    13:00 +19°C° 0.8 mm 2 mps 747 mmHg 94%
    14:00 +19°C° 0.8 mm 2 mps 747 mmHg 92%
    15:00 +20°C° 0.5 mm 3 mps 747 mmHg 89%
    16:00 +21°C° 0.5 mm 3 mps 747 mmHg 86%
    17:00 +21°C° 0.5 mm 3 mps 747 mmHg 83%
    18:00 +20°C° 0.2 mm 3 mps 747 mmHg 87%
    19:00 +19°C° 0.2 mm 3 mps 746 mmHg 90%
    20:00 +18°C° 0.2 mm 2 mps 746 mmHg 93%
    21:00 +17°C° 0 mm 3 mps 746 mmHg 94%
    22:00 +17°C° 0 mm 3 mps 746 mmHg 95%
    23:00 +16°C° 0 mm 3 mps 746 mmHg 96%

    Day after tomorrow, 23 July, Tuesday

    Time Temperature Precipitation Wind Pressure Humidity
    00:00 +16°C° 0 mm 3 mps 746 mmHg 97%
    01:00 +16°C° 0 mm 3 mps 746 mmHg 97%
    02:00 +16°C° 0 mm 3 mps 746 mmHg 97%
    03:00 +16°C° 0 mm 3 mps 746 mmHg 96%
    04:00 +16°C° 0 mm 3 mps 746 mmHg 96%
    05:00 +16°C° 0 mm 3 mps 746 mmHg 95%
    06:00 +16°C° 0 mm 3 mps 746 mmHg 94%
    07:00 +17°C° 0 mm 3 mps 746 mmHg 92%
    08:00 +17°C° 0 mm 3 mps 746 mmHg 91%
    09:00 +18°C° 0 mm 3 mps 746 mmHg 89%
    10:00 +18°C° 0 mm 3 mps 747 mmHg 87%
    11:00 +19°C° 0 mm 3 mps 747 mmHg 85%
    12:00 +19°C° 0.1 mm 3 mps 747 mmHg 80%
    13:00 +20°C° 0.1 mm 3 mps 747 mmHg 75%
    14:00 +21°C° 0.1 mm 3 mps 747 mmHg 70%
    15:00 +21°C° 0.3 mm 3 mps 746 mmHg 72%
    16:00 +21°C° 0.3 mm 3 mps 746 mmHg 74%
    17:00 +22°C° 0.3 mm 3 mps 746 mmHg 75%
    18:00 +20°C° 0.3 mm 2 mps 746 mmHg 82%
    19:00 +19°C° 0.3 mm 2 mps 746 mmHg 88%
    20:00 +18°C° 0.3 mm 2 mps 746 mmHg 94%
    21:00 +17°C° 0 mm 2 mps 746 mmHg 95%
    22:00 +16°C° 0 mm 2 mps 746 mmHg 95%
    23:00 +16°C° 0 mm 2 mps 747 mmHg 95%

    24 July, Wednesday

    Time Temperature Precipitation Wind Pressure Humidity
    00:00 +15°C° 0 mm 2 mps 747 mmHg 95%
    01:00 +15°C° 0 mm 2 mps 747 mmHg 96%
    02:00 +15°C° 0 mm 2 mps 747 mmHg 96%
    03:00 +15°C° 0 mm 2 mps 747 mmHg 96%
    04:00 +15°C° 0 mm 2 mps 747 mmHg 96%
    05:00 +15°C° 0 mm 2 mps 747 mmHg 96%
    06:00 +16°C° 0 mm 3 mps 747 mmHg 92%
    07:00 +18°C° 0 mm 3 mps 747 mmHg 88%
    08:00 +19°C° 0 mm 3 mps 747 mmHg 83%
    09:00 +21°C° 0 mm 3 mps 747 mmHg 75%
    10:00 +24°C° 0 mm 3 mps 748 mmHg 67%
    11:00 +25°C° 0 mm 4 mps 748 mmHg 59%
    12:00 +26°C° 0 mm 4 mps 748 mmHg 57%
    13:00 +26°C° 0 mm 4 mps 748 mmHg 56%
    14:00 +27°C° 0 mm 4 mps 748 mmHg 54%
    15:00 +26°C° 0 mm 4 mps 748 mmHg 57%
    16:00 +26°C° 0 mm 4 mps 748 mmHg 59%
    17:00 +26°C° 0 mm 3 mps 748 mmHg 61%
    18:00 +24°C° 0 mm 3 mps 748 mmHg 68%
    19:00 +21°C° 0 mm 2 mps 748 mmHg 75%
    20:00 +19°C° 0 mm 2 mps 748 mmHg 81%
    21:00 +19°C° 0 mm 2 mps 749 mmHg 83%
    22:00 +18°C° 0 mm 2 mps 749 mmHg 85%
    23:00 +17°C° 0 mm 2 mps 749 mmHg 86%

    25 July, Thursday

    Time Temperature Precipitation Wind Pressure Humidity
    00:00 +17°C° 0 mm 2 mps 750 mmHg 87%
    01:00 +16°C° 0 mm 2 mps 750 mmHg 88%
    02:00 +16°C° 0 mm 2 mps 750 mmHg 89%
    03:00 +15°C° 0 mm 2 mps 750 mmHg 89%
    04:00 +15°C° 0 mm 2 mps 750 mmHg 89%
    05:00 +15°C° 0 mm 2 mps 750 mmHg 89%
    06:00 +17°C° 0 mm 2 mps 750 mmHg 82%
    07:00 +19°C° 0 mm 2 mps 751 mmHg 75%
    08:00 +21°C° 0 mm 3 mps 751 mmHg 69%
    09:00 +24°C° 0 mm 3 mps 751 mmHg 63%
    10:00 +25°C° 0 mm 3 mps 751 mmHg 57%
    11:00 +26°C° 0 mm 4 mps 751 mmHg 51%
    12:00 +27°C° 0 mm 4 mps 751 mmHg 51%
    13:00 +27°C° 0 mm 4 mps 751 mmHg 50%
    14:00 +27°C° 0 mm 4 mps 750 mmHg 49%
    15:00 +27°C° 0 mm 4 mps 750 mmHg 52%
    16:00 +27°C° 0 mm 4 mps 750 mmHg 54%
    17:00 +26°C° 0 mm 4 mps 750 mmHg 57%
    18:00 +24°C° 0 mm 3 mps 750 mmHg 65%
    19:00 +21°C° 0 mm 2 mps 750 mmHg 72%
    20:00 +20°C° 0 mm 2 mps 750 mmHg 79%
    21:00 +19°C° 0 mm 2 mps 750 mmHg 82%
    22:00 +18°C° 0 mm 2 mps 750 mmHg 85%
    23:00 +18°C° 0 mm 2 mps 751 mmHg 88%

    26 July, Friday

    Time Temperature Precipitation Wind Pressure Humidity
    00:00 +17°C° 0 mm 2 mps 751 mmHg 89%
    01:00 +17°C° 0 mm 2 mps 751 mmHg 90%
    02:00 +16°C° 0 mm 2 mps 751 mmHg 92%
    03:00 +16°C° 0 mm 2 mps 751 mmHg 92%
    04:00 +16°C° 0 mm 2 mps 751 mmHg 92%
    05:00 +16°C° 0 mm 2 mps 751 mmHg 92%
    06:00 +18°C° 0 mm 2 mps 751 mmHg 86%
    07:00 +20°C° 0 mm 2 mps 751 mmHg 80%
    08:00 +22°C° 0 mm 3 mps 751 mmHg 74%
    09:00 +24°C° 0 mm 3 mps 751 mmHg 68%
    10:00 +26°C° 0 mm 3 mps 751 mmHg 62%
    11:00 +27°C° 0 mm 3 mps 751 mmHg 56%
    12:00 +27°C° 0.1 mm 3 mps 750 mmHg 56%
    13:00 +28°C° 0.1 mm 3 mps 750 mmHg 57%
    14:00 +28°C° 0.1 mm 3 mps 750 mmHg 57%
    15:00 +27°C° 0.1 mm 3 mps 750 mmHg 59%
    16:00 +27°C° 0.1 mm 3 mps 749 mmHg 62%
    17:00 +27°C° 0.1 mm 3 mps 749 mmHg 65%
    18:00 +25°C° 0.1 mm 3 mps 749 mmHg 71%
    19:00 +24°C° 0.1 mm 2 mps 749 mmHg 78%
    20:00 +21°C° 0.1 mm 2 mps 749 mmHg 84%
    21:00 +20°C° 0 mm 2 mps 749 mmHg 87%
    22:00 +20°C° 0 mm 2 mps 749 mmHg 90%
    23:00 +19°C° 0 mm 2 mps 749 mmHg 92%
    Show more